Date String (YYYY-MM-DD hh:mm:ss) UTC,Instrument flags,absolute air pressure of the measurement (hPa),sample flow rate (lpm),inlet stack bypass flow (lpm),air temperature of the measurement (°C),ambient temperature measured by the external sensor (°C),aerosol sample conditioner tube jacket temperature (°C),OPC LED temperature (°C),internal box temperature (°C),relative humidity of the measurement (%),span deviation,mass concentration of particles derived from Lorenz-Mie calculation of OPC scattering (μg/m³),mass concentration of particles derived from Lorenz-Mie calculation of OPC scattering (μg/m³),mass concentration of particles derived from Lorenz-Mie calculation of OPC scattering (μg/m³)
DateTimeUTC,F1_M11,P_M11,Q1_M11,Q2_M11,T1_M11,T2_M11,T3_M11,T4_M11,T5_M11,U1_M11,ZSPAN_M11,X2_M11,X0_M11,X1_M11
2024-01-23 03:00:00,SystemResetWarning,0826.2,5.00,000.00,025.4,024.3,000.0,033.8,026.8,14.0,0004.0,0004.40,0008.73,0004.18
2024-01-23 03:01:00,SystemResetWarning,0826.1,5.00,000.00,025.4,024.3,000.0,033.8,026.8,14.0,0003.8,0004.42,0009.19,0004.20
2024-01-23 03:02:00,SystemResetWarning,0826.2,5.01,000.00,025.4,024.3,000.0,033.8,026.8,14.0,0004.5,0004.47,0009.48,0004.23
2024-01-23 03:03:00,SystemResetWarning,0826.1,5.00,000.00,025.4,024.2,000.0,033.8,026.8,14.0,0004.7,0004.51,0009.70,0004.26
2024-01-23 03:04:00,SystemResetWarning,0826.1,5.00,000.00,025.4,024.2,000.0,033.8,026.8,14.0,0005.1,0004.50,0009.07,0004.27
2024-01-23 03:05:00,SystemResetWarning,0826.1,5.00,000.00,025.4,024.2,000.0,033.8,026.8,14.0,0005.4,0004.50,0008.84,0004.28
2024-01-23 03:06:00,SystemResetWarning,0826.1,5.00,000.00,025.4,024.2,000.0,033.8,026.8,14.1,0005.4,0004.52,0008.81,0004.29
2024-01-23 03:07:00,SystemResetWarning,0826.0,5.00,000.00,025.4,024.2,000.0,033.8,026.7,14.1,0004.8,0004.54,0008.59,0004.29
2024-01-23 03:08:00,SystemResetWarning,0826.0,5.00,000.00,025.4,024.2,000.0,033.8,026.7,14.0,0003.9,0004.56,0008.66,0004.29
2024-01-23 03:09:00,SystemResetWarning,0826.0,5.00,000.00,025.4,024.2,000.0,033.8,026.7,14.1,0003.9,0004.59,0009.32,0004.30
2024-01-23 03:10:00,SystemResetWarning,0826.1,5.00,000.00,025.4,024.2,000.0,033.8,026.7,14.1,0004.1,0004.59,0009.62,0004.29
2024-01-23 03:11:00,SystemResetWarning,0826.1,5.00,000.00,025.4,024.2,000.0,033.8,026.7,14.1,0003.7,0004.59,0009.99,0004.28
2024-01-23 03:12:00,SystemResetWarning,0826.1,4.99,000.00,025.4,024.2,000.0,033.7,026.7,14.1,0003.6,0004.58,0009.76,0004.28
2024-01-23 03:13:00,SystemResetWarning,0826.1,4.99,000.00,025.4,024.2,000.0,033.7,026.7,14.2,0003.6,0004.55,0009.73,0004.26
2024-01-23 03:14:00,SystemResetWarning,0826.2,4.99,000.00,025.4,024.2,000.0,033.7,026.7,14.2,0003.2,0004.51,0009.47,0004.24
2024-01-23 03:15:00,SystemResetWarning,0826.2,4.99,000.00,025.4,024.2,000.0,033.7,026.7,14.2,0003.2,0004.50,0009.28,0004.23
2024-01-23 03:16:00,SystemResetWarning,0826.2,5.00,000.00,025.4,024.2,000.0,033.7,026.7,14.2,0002.8,0004.51,0009.29,0004.24
2024-01-23 03:17:00,SystemResetWarning,0826.2,5.00,000.00,025.4,024.2,000.0,033.7,026.7,14.2,0003.1,0004.53,0009.29,0004.24
2024-01-23 03:18:00,SystemResetWarning,0826.2,5.00,000.00,025.4,024.2,000.0,033.7,026.7,14.2,0003.4,0004.51,0009.47,0004.24
2024-01-23 03:19:00,SystemResetWarning,0826.1,5.01,000.00,025.3,024.2,000.0,033.7,026.7,14.2,0004.1,0004.52,0009.84,0004.26
2024-01-23 03:20:00,SystemResetWarning,0826.1,5.00,000.00,025.3,024.2,000.0,033.7,026.7,14.2,0003.9,0004.51,0009.50,0004.25
2024-01-23 03:21:00,SystemResetWarning,0826.2,5.00,000.00,025.3,024.2,000.0,033.7,026.7,14.3,0003.6,0004.52,0008.93,0004.25
2024-01-23 03:22:00,SystemResetWarning,0826.1,4.99,000.00,025.3,024.2,000.0,033.7,026.7,14.3,0002.1,0004.50,0008.41,0004.24
2024-01-23 03:23:00,SystemResetWarning,0826.1,4.99,000.00,025.3,024.2,000.0,033.7,026.7,14.3,0003.5,0004.49,0008.23,0004.23
2024-01-23 03:24:00,SystemResetWarning,0826.1,5.00,000.00,025.3,024.2,000.0,033.7,026.7,14.4,0003.2,0004.48,0007.79,0004.23
2024-01-23 03:25:00,SystemResetWarning,0826.1,5.01,000.00,025.3,024.2,000.0,033.7,026.7,14.4,0003.1,0004.49,0007.82,0004.23
2024-01-23 03:26:00,SystemResetWarning,0826.1,5.01,000.00,025.3,024.2,000.0,033.7,026.7,14.4,0002.6,0004.52,0007.91,0004.25
2024-01-23 03:27:00,SystemResetWarning,0826.1,5.00,000.00,025.3,024.2,000.0,033.7,026.7,14.4,0002.5,0004.54,0008.15,0004.25
2024-01-23 03:28:00,SystemResetWarning,0826.0,4.99,000.00,025.3,024.1,000.0,033.7,026.7,14.4,0002.2,0004.54,0008.12,0004.26
2024-01-23 03:29:00,SystemResetWarning,0826.0,4.99,000.00,025.3,024.1,000.0,033.7,026.7,14.4,0002.0,0004.55,0007.94,0004.29
2024-01-23 03:30:00,SystemResetWarning,0826.0,5.01,000.00,025.3,024.1,000.0,033.7,026.7,14.4,0001.9,0004.56,0007.50,0004.30
2024-01-23 03:31:00,SystemResetWarning,0826.1,5.00,000.00,025.3,024.1,000.0,033.7,026.6,14.4,0002.4,0004.60,0007.85,0004.34
2024-01-23 03:32:00,SystemResetWarning,0826.0,5.01,000.00,025.3,024.1,000.0,033.7,026.6,14.4,0002.9,0004.65,0008.30,0004.39
2024-01-23 03:33:00,SystemResetWarning,0826.0,4.99,000.00,025.3,024.1,000.0,033.6,026.6,14.5,0003.3,0004.71,0009.15,0004.44
2024-01-23 03:34:00,SystemResetWarning,0826.0,4.98,000.00,025.3,024.1,000.0,033.6,026.7,14.5,0003.3,0004.76,0009.52,0004.50
2024-01-23 03:35:00,SystemResetWarning,0826.0,5.01,000.00,025.3,024.1,000.0,033.6,026.7,14.5,0003.3,0004.84,0009.71,0004.56
2024-01-23 03:36:00,SystemResetWarning,0826.0,5.01,000.00,025.3,024.1,000.0,033.6,026.6,14.5,0003.2,0004.89,0009.86,0004.60
2024-01-23 03:37:00,SystemResetWarning,0826.0,5.01,000.00,025.3,024.1,000.0,033.6,026.6,14.5,0003.1,0004.91,0010.00,0004.64
2024-01-23 03:38:00,SystemResetWarning,0826.0,5.00,000.00,025.3,024.1,000.0,033.6,026.6,14.5,0003.3,0004.95,0010.06,0004.69
2024-01-23 03:39:00,SystemResetWarning,0826.0,4.99,000.00,025.3,024.1,000.0,033.6,026.6,14.5,0003.3,0005.03,0010.18,0004.75
2024-01-23 03:40:00,SystemResetWarning,0826.0,4.99,000.00,025.2,024.1,000.0,033.6,026.6,14.5,0003.1,0005.08,0010.32,0004.80
2024-01-23 03:41:00,SystemResetWarning,0825.9,5.01,000.00,025.2,024.1,000.0,033.6,026.6,14.5,0003.1,0005.12,0010.46,0004.83
2024-01-23 03:42:00,SystemResetWarning,0825.9,5.00,000.00,025.2,024.1,000.0,033.6,026.6,14.4,0002.9,0005.15,0010.34,0004.87
2024-01-23 03:43:00,SystemResetWarning,0826.0,5.00,000.00,025.2,024.0,000.0,033.6,026.6,14.5,0002.7,0005.18,0010.02,0004.90
2024-01-23 03:44:00,SystemResetWarning,0825.9,4.98,000.00,025.2,024.0,000.0,033.6,026.6,14.5,0002.5,0005.22,0009.92,0004.91
2024-01-23 03:45:00,SystemResetWarning,0825.9,5.00,000.00,025.2,024.0,000.0,033.6,026.6,14.5,0002.5,0005.26,0009.80,0004.93
2024-01-23 03:46:00,SystemResetWarning,0825.9,5.00,000.00,025.2,024.0,000.0,033.6,026.6,14.5,0002.5,0005.29,0009.79,0004.95
2024-01-23 03:47:00,SystemResetWarning,0825.9,5.01,000.00,025.2,024.0,000.0,033.6,026.6,14.5,0002.6,0005.34,0009.72,0004.98
2024-01-23 03:48:00,SystemResetWarning,0825.9,5.01,000.00,025.2,024.0,000.0,033.6,026.6,14.5,0002.9,0005.38,0009.62,0005.02
2024-01-23 03:49:00,SystemResetWarning,0825.9,5.00,000.00,025.2,024.0,000.0,033.6,026.6,14.5,0002.9,0005.39,0009.83,0005.04
2024-01-23 03:50:00,SystemResetWarning,0825.9,5.00,000.00,025.2,024.0,000.0,033.6,026.6,14.5,0003.1,0005.42,0010.18,0005.05
2024-01-23 03:51:00,SystemResetWarning,0825.9,4.99,000.00,025.2,024.0,000.0,033.6,026.5,14.5,0003.5,0005.44,0010.66,0005.07
2024-01-23 03:52:00,SystemResetWarning,0825.9,4.99,000.00,025.2,023.9,000.0,033.5,026.5,14.5,0003.4,0005.49,0010.75,0005.10
2024-01-23 03:53:00,SystemResetWarning,0825.9,5.00,000.00,025.2,023.9,000.0,033.5,026.5,14.5,0003.1,0005.51,0010.68,0005.12
2024-01-23 03:54:00,SystemResetWarning,0825.9,5.01,000.00,025.1,023.9,000.0,033.5,026.5,14.5,0002.9,0005.50,0010.54,0005.14
2024-01-23 03:55:00,SystemResetWarning,0825.9,5.00,000.00,025.1,023.9,000.0,033.5,026.5,14.5,0003.3,0005.52,0010.04,0005.18
2024-01-23 03:56:00,SystemResetWarning,0825.9,5.00,000.00,025.1,023.9,000.0,033.5,026.5,14.5,0003.4,0005.57,0009.92,0005.23
2024-01-23 03:57:00,SystemResetWarning,0825.8,4.99,000.00,025.1,023.9,000.0,033.5,026.5,14.5,0003.5,0005.57,0010.54,0005.24
2024-01-23 03:58:00,SystemResetWarning,0825.8,4.99,000.00,025.1,023.9,000.0,033.5,026.5,14.5,0003.4,0005.58,0010.82,0005.26
2024-01-23 03:59:00,SystemResetWarning,0825.9,5.00,000.00,025.1,023.9,000.0,033.5,026.4,14.5,0003.2,0005.60,0010.84,0005.28
